Bardonecchia, Italy 16 day weather forecast

Slopes altitude range 1545 m - 1545m

Number of lifts: 21 Pistes: 100km

In some cases the lift and piste totals shown are for the ski domain (e.g. Three Valleys) rather than individual resort (e.g. Courchevel)

Overview

The 16 day weather forecast is fully updated 4 times every day.

    • Mon 22 APR 2019
    • Mon 22
    • -2C 3C
    • Tue 23 APR 2019
    • Tue 23
    • -1C 4C
    • Wed 24 APR 2019
    • Wed 24
    • 0C 1C
    • Thu 25 APR 2019
    • Thu 25
    • -3C 2C
    • Fri 26 APR 2019
    • Fri 26
    • -2C -1C
    • Sat 27 APR 2019
    • Sat 27
    • -5C 3C
    • Sun 28 APR 2019
    • Sun 28
    • 1C 7C
    • Mon 29 APR 2019
    • Mon 29
    • 3C 10C
    • Tue 30 APR 2019
    • Tue 30
    • 5C 8C
    • Wed 01 MAY 2019
    • Wed 01
    • 1C 10C
    • Thu 02 MAY 2019
    • Thu 02
    • 0C 9C
    • Fri 03 MAY 2019
    • Fri 03
    • 0C 6C
    • Sat 04 MAY 2019
    • Sat 04
    • -1C 5C
    • Sun 05 MAY 2019
    • Sun 05
    • 2C 4C
    • Mon 06 MAY 2019
    • Mon 06
    • 1C 6C
    • Tue 07 MAY 2019
    • Tue 07
    • -2C 4C

Date:

Time Type 0°C level Temp Chill Snow Cloud Speed Gust Dir Press
3:00 2011m -2°C -2_9 1cm 94% 9mph 11mph 1012mB
6:00 1936m -3°C -3_9 1cm 84% 9mph 11mph 1011mB
9:00 2335m -2°C -2_10 0cm 76% 10mph 13mph 1008mB
12:00 2544m 3°C 3_10 0cm 64% 10mph 12mph 1006mB
15:00 2576m 4°C 4_10 0cm 54% 10mph 12mph 1004mB
18:00 2181m 4°C 4_9 1cm 77% 9mph 11mph 1003mB
21:00 2047m -2°C -2_8 1cm 99% 8mph 10mph 1004mB
0:00 2059m -2°C -2_8 1cm 99% 8mph 11mph 1004mB
3:00 1984m -2°C -2_8 1cm 99% 8mph 10mph 1002mB
6:00 2132m -2°C -2_8 1cm 97% 8mph 10mph 1002mB
9:00 2423m -1°C -1_9 1cm 89% 9mph 10mph 1001mB
12:00 2555m 4°C 4_9 1cm 88% 9mph 10mph 1001mB
15:00 2487m 4°C 4_9 1cm 93% 9mph 10mph 1000mB
18:00 2416m 4°C 4_9 1cm 85% 9mph 11mph 1002mB
21:00 2185m -1°C -1_9 1cm 76% 9mph 11mph 1005mB
0:00 2207m -1°C -1_10 1cm 82% 10mph 15mph 1006mB
3:00 2096m -1°C -1_11 0cm 79% 11mph 14mph 1006mB
6:00 2271m -1°C -1_13 1cm 86% 13mph 17mph 1007mB
9:00 2339m 0°C 0_13 3cm 98% 13mph 17mph 1009mB
12:00 2335m 1°C 1_13 4cm 99% 13mph 17mph 1011mB
15:00 2230m 1°C 1_14 4cm 100% 14mph 18mph 1012mB
18:00 1779m 1°C 1_10 0cm 63% 10mph 11mph 1013mB
21:00 1293m -6°C -6_10 0cm 2% 10mph 12mph 1016mB
0:00 1288m -6°C -6_11 0cm 37% 11mph 12mph 1017mB
3:00 1262m -6°C -6_11 0cm 86% 11mph 12mph 1017mB
6:00 1671m -6°C -6_12 0cm 65% 12mph 15mph 1017mB
9:00 2203m -3°C -3_13 0cm 58% 13mph 18mph 1016mB
12:00 2427m 2°C 2_14 0cm 68% 14mph 17mph 1016mB
15:00 2557m 3°C 3_13 0cm 77% 13mph 16mph 1015mB
18:00 2412m 3°C 3_11 0cm 72% 11mph 17mph 1015mB
21:00 2097m -1°C -1_11 1cm 81% 11mph 16mph 1017mB
0:00 2000m -2°C -2_15 1cm 85% 15mph 21mph 1017mB
3:00 2002m -2°C -2_6 3cm 90% 6mph 9mph 1017mB
6:00 1922m -2°C -2_7 4cm 95% 7mph 9mph 1018mB
9:00 2018m -2°C -2_8 1cm 91% 8mph 9mph 1019mB
12:00 2063m -1°C -1_10 1cm 90% 10mph 12mph 1018mB
15:00 2051m -1°C -1_10 1cm 79% 10mph 12mph 1018mB
18:00 1820m -1°C -1_10 2cm 87% 10mph 13mph 1020mB
21:00 1644m -4°C -4_10 1cm 94% 10mph 15mph 1024mB
0:00 1547m -5°C -5_11 1cm 83% 11mph 16mph 1025mB
3:00 1329m -6°C -6_9 1cm 62% 9mph 13mph 1026mB
6:00 1453m -7°C -7_9 0cm 67% 9mph 11mph 1027mB
9:00 2271m -5°C -5_10 0cm 49% 10mph 13mph 1025mB
12:00 2480m 3°C 3_11 0cm 25% 11mph 12mph 1024mB
15:00 2538m 3°C 3_11 0cm 19% 11mph 12mph 1023mB
18:00 2431m 3°C 3_8 0cm 34% 8mph 11mph 1024mB
21:00 1939m -2°C -2_6 0cm 68% 6mph 7mph 1027mB
0:00 1940m -2°C -2_6 0cm 68% 6mph 8mph 1027mB
3:00 2141m -2°C -2_6 0cm 68% 6mph 8mph 1026mB
6:00 2629m -2°C -2_6 0cm 68% 6mph 8mph 1026mB
9:00 3092m 1°C 1_7 0cm 64% 7mph 8mph 1024mB
12:00 2953m 7°C 7_8 0cm 58% 8mph 8mph 1023mB
15:00 3013m 8°C 8_8 0cm 16% 8mph 8mph 1021mB
18:00 2978m 8°C 8_6 0cm 10% 6mph 7mph 1021mB
21:00 2693m 1°C 1_5 0cm 8% 5mph 6mph 1023mB
0:00 2653m 0°C 0_3 0cm 20% 3mph 4mph 1022mB
3:00 2673m 0°C 0_3 0cm 56% 3mph 4mph 1020mB
6:00 3083m 0°C 0_5 0cm 53% 5mph 6mph 1019mB
9:00 2996m 3°C 3_8 0cm 21% 8mph 9mph 1017mB
12:00 3120m 10°C 10_10 0cm 21% 10mph 13mph 1014mB
15:00 3197m 15°C 15_6 0cm 7% 6mph 16mph 1011mB
18:00 3080m 15°C 15_6 0cm 5% 6mph 7mph 1010mB
21:00 2913m 6°C 6_8 0cm 2% 8mph 11mph 1011mB
0:00 2798m 5°C 5_8 0cm 2% 8mph 13mph 1010mB
3:00 2602m 5°C 5_9 0cm 23% 9mph 15mph 1008mB
6:00 2443m 4°C 4_10 0cm 22% 10mph 20mph 1008mB
9:00 2392m 5°C 5_10 0cm 9% 10mph 16mph 1007mB
12:00 2471m 8°C 8_10 0cm 5% 10mph 13mph 1006mB
15:00 2446m 8°C 8_10 0cm 1% 10mph 12mph 1006mB
18:00 2228m 8°C 8_9 0cm 1% 9mph 13mph 1007mB
21:00 1837m -1°C -1_8 0cm 0% 8mph 13mph 1010mB
0:00 1723m -1°C -1_7 0cm 1% 7mph 10mph 1011mB
3:00 1581m -2°C -2_5 0cm 0% 5mph 5mph 1012mB
6:00 1900m -2°C -2_2 0cm 0% 2mph 3mph 1012mB
9:00 2191m 1°C 1_2 0cm 1% 2mph 4mph 1011mB
12:00 2396m 10°C 10_2 0cm 7% 2mph 5mph 1010mB
15:00 2470m 10°C 10_1 0cm 28% 1mph 4mph 1009mB
18:00 2355m 10°C 10_1 0cm 15% 1mph 2mph 1010mB
21:00 2157m 0°C 0_4 0cm 0% 4mph 5mph 1012mB
0:00 1980m 0°C 0_3 0cm 6% 3mph 3mph 1011mB
Afternoon 0.0572917mm 0.6875 2338m 9°C 9_1 0cm 57% 1mph 4mph 1008mB
Morning 0.0729167mm 0.75 2334m 2°C 2_3 6cm 59% 3mph 4mph 1011mB
Afternoon 0.03125mm 0.125 2330m 6°C 6_8 1cm 45% 8mph 9mph 1008mB
Morning 0.130208mm 0.25 2213m 2°C 2_6 2cm 96% 6mph 9mph 1008mB
Afternoon 0.15625mm 0.0625 2211m 5°C 5_9 1cm 90% 9mph 11mph 1004mB
Morning 0.25mm 0.0625 2600m 2°C 2_5 0cm 90% 5mph 8mph 1004mB
Afternoon 1.78646mm 0.125 2264m 4°C 4_2 14cm 95% 2mph 4mph 1001mB
Morning 1.09896mm 0.8125 2211m 2°C 2_9 9cm 94% 9mph 15mph 1003mB
Afternoon 0.03125mm 0 2367m 6°C 6_9 1cm 94% 9mph 12mph 1005mB
Morning 0.0260417mm 0 1833m 0°C 0_10 1cm 93% 10mph 17mph 1010mB
Afternoon 0.015625mm 0 1974m 4°C 4_9 1cm 29% 9mph 10mph 1013mB
Morning 0.00520833mm 0 1147m -5°C -5_8 0cm 20% 8mph 12mph 1021mB

16 day outlook at a glance

Forecast issued: 22/04/2019 08:04:31

Chat

Your comments and questions. In a resort? Let us know what it's like!


Characters left 250

For terms and conditions see Readers Comments on the Cookie and privacy policy page.